Flag for Germany Weather past 2 weeks in Baden-Baden, Baden-Württemberg, Germany

Now
50 °F

Sprinkles. Passing clouds.


Feels Like: 45 °F
Forecast: 48 / 52 °F
Wind: 15 mph from Southwest

Location: Karlsruhe - Baden Wurttemberg

Current Time: Mar 29, 2015 at 8:33:07 AM

Latest Report: Mar 29, 2015 at 7:50 AM


Visibility: 4 mi

Pressure: 29.89 "Hg

Humidity: 82%

Dew point: 45 °F

Location of Baden-BadenLocation

Historic Weather in Baden-Baden — Graph

°F

Baden-Baden temperature yesterday

Maximum temperature yesterday: 57 °F (at 2:50 PM)
Minimum temperature yesterday: 37 °F (at 5:50 AM)
Average temperature yesterday: 49 °F

Past Weeks' High & Low Weather Summary

 TemperatureHumidityPressure
High64 °F (Mar 18, 2:50 PM)100% (Mar 18, 7:50 AM)30.27 "Hg (Mar 18, 7:50 AM)
Low30 °F (Mar 24, 5:20 AM)34% (Mar 18, 2:50 PM)29.62 "Hg (Mar 25, 5:20 AM)
Average47 °F66%30.06 "Hg
* Reported Mar 14 6:20 AM — Mar 29 7:20 AM, Baden-Baden, Weather by CustomWeather, © 2015

Note: Actual official high and low records may vary slightly from our data, if they occured in-between our weather recording intervals... More about our weather records

Advertising

Baden-Baden weather history for previous 24 hours

 ConditionsComfort  
Time TempWeatherWind HumidityBarometerVisibility
7:20 AM
Sun, Mar 29
50 °FPassing clouds.17 mph82%29.89 "HgN/A
6:50 AM52 °FPassing clouds.16 mph77%29.89 "HgN/A
6:20 AM52 °FPassing clouds.16 mph77%29.89 "HgN/A
5:50 AM52 °FPassing clouds.17 mph77%29.92 "HgN/A
5:20 AM52 °FPassing clouds.18 mph77%29.92 "HgN/A
4:50 AM52 °FPassing clouds.21 mph77%29.92 "HgN/A
10:50 PM
Sat, Mar 28
50 °FScattered showers. Passing clouds.14 mph76%30.01 "HgN/A
10:20 PM48 °FLight rain. Passing clouds.15 mph82%30.04 "HgN/A
9:50 PM50 °FScattered showers. Passing clouds.17 mph71%30.04 "HgN/A
9:20 PM48 °FLight rain. Passing clouds.17 mph76%30.04 "HgN/A
8:50 PM48 °FLight rain. Passing clouds.16 mph82%30.07 "Hg6 mi
8:20 PM48 °FSprinkles. Passing clouds.16 mph76%30.07 "HgN/A
8:03 PM50 °FSprinkles. Passing clouds.15 mph71%30.07 "HgN/A
7:50 PM50 °FPassing clouds.15 mph67%30.04 "HgN/A
7:20 PM48 °FPassing clouds.9 mph76%30.04 "HgN/A
6:50 PM50 °FLight rain. Partly sunny.9 mph71%30.07 "HgN/A
6:20 PM50 °FLight rain. Partly sunny.8 mph71%30.07 "HgN/A
5:50 PM52 °FDrizzle. Broken clouds.12 mph62%30.07 "HgN/A
5:20 PM54 °FPartly sunny.13 mph54%30.07 "HgN/A
4:50 PM55 °FPartly sunny.10 mph44%30.07 "HgN/A
4:20 PM55 °FDrizzle. Broken clouds.10 mph44%30.07 "HgN/A
3:50 PM55 °FLight rain. Broken clouds.12 mph41%30.07 "HgN/A
3:20 PM55 °FSunny.10 mph41%30.07 "Hg10 mi
2:50 PM57 °FSunny.14 mph36%30.07 "Hg10 mi
2:20 PM55 °FSunny.13 mph38%30.09 "Hg10 mi
1:50 PM55 °FPassing clouds.12 mph38%30.09 "HgN/A
1:20 PM55 °FPassing clouds.10 mph36%30.12 "HgN/A
12:50 PM55 °FRefreshingly cool.13 mph38%30.15 "HgN/A
12:20 PM54 °FPassing clouds.13 mph38%30.15 "HgN/A
11:50 AM54 °FPassing clouds.10 mph38%30.15 "HgN/A
11:20 AM52 °FPassing clouds.12 mph41%30.18 "HgN/A
10:50 AM52 °FSunny.14 mph44%30.18 "Hg10 mi
10:20 AM50 °FSunny.13 mph50%30.21 "Hg10 mi
9:50 AM50 °FPassing clouds.10 mph50%30.21 "HgN/A
9:20 AM46 °FSunny.8 mph62%30.21 "Hg10 mi
8:50 AM45 °FPassing clouds.6 mph66%30.21 "HgN/A
8:20 AM43 °FSunny.3 mph71%30.24 "Hg10 mi
Weather by CustomWeather, © 2015

See weather overviewHow to use our weather pages